カタログに戻る

COSMOS 1305

運用中軍事HEO
NORAD 12818·PAYLOAD·🇷🇺 Russia

打ち上げ Sep 11, 1981 から Plesetsk Cosmodrome

Loading…

次のパス (今後24時間)

TLE

最新Source: Space-Track

元期: Sep 14, 2026, 02:08 UTC

1 12818U 81088A   26257.08954555  .00000038  00000-0  19214-3 0  9999
2 12818  62.7849 302.5336 4897754 273.4553  34.0533  5.46291795897610

AllMySatでCOSMOS 1305をリアルタイム追跡

Download on the App Store